sat.trackr.live / text

‹ back to catalog

STARLINK-30113

NORAD 56291 · 2023-056F

PAYLOAD ACTIVE UNKNOWN

§ Identity

Operator
Country
US
Launch date
2023-04-19
Launch site
AFETR
Launch vehicle
Mass (kg)
RCS (m²)

Purposes: comms

External: N2YO · Heavens-Above · Gunter

§ Orbital elements

Epoch: 2026-09-20T05:34:53.815584Z

Period
94.27 min
Inclination
43.0017°
Eccentricity
0.0001284
Mean motion
15.27582793 rev/d
Perigee alt
482.2 km
Apogee alt
483.9 km
Semi-major
6,861.2 km
B*
-2.6385e-5
RAAN
190.1681°
Arg perigee
267.0131°
Mean anomaly
93.0573°
Rev number
18,979

§ Raw data

STARLINK-301131 56291U 23056F   26263.23256731 -.00000988  00000+0 -26385-4 0  99912 56291  43.0017 190.1681 0001284 267.0131  93.0573 15.27582793189791

JSON: /api/v1/satellites/56291 · /tle

For live sub-satellite position, see the globe view (requires WebGL).

§ Visibility from observer

Set your observer location to see the next 7 days of passes ≥ 10°. The values pass through the URL so the page stays shareable.

No JS? Fill the form by hand. The geolocation button needs JavaScript.